Forside
METAR-TAF:

METAR-TAF

Lufthavne :

Munising, Michigan, USA

Breddekreds: 46-24N, længdekreds: 086-39W, højde: 187 m

Aktuelle vejr

Denne rapport blev lavet for 1 time og 35 minutter siden, kl. 10:56 UTC
Vind 3 kt fra vestsydvest
Temperatur -6°C
Fugtighed 79%
Tryk 1026 hPa

METAR: KP53 241056Z AUTO 25003KT M06/M09 A3031 RMK AO1 SLP274 T10561089

Tid: 07:31 (12:31 UTC)


TAF: fraværende

Vejrobservationer og prognoser fra mere end 4000 lufthavne (METAR og TAF).

De gule og røde prikker repræsenterer de meteorologiske stationer.

Flyt musen over at se navnet på stationen.

Så klik over at se vejr observationer og prognoser.

At skifte det kort: Klik på de grønne knapper med et sort kors for at zoome ind; på den grønne knap med en bindestreg for at zoome ud; eller på de grønne pile for tilstødende kort.


METAR-TAF: